Location: Boneville
(33.4331°N, 82.4399°W)
Time: 01:11:58
(UTC+00:00)

Envisat - Visible Passes

Search period start: 09 December 2021 00:00
Search period end: 19 December 2021 00:00
Orbit: 764 x 766 km, 98.2° (Epoch: 08 December)

Date Brightness Start Highest point End Pass type
(mag) Time Alt. Az. Time Alt. Az. Time Alt. Az.
09 Dec 5.8 09:14:23 10° ENE 09:17:09 15° E 09:19:54 10° SE visible
09 Dec 3.1 10:51:28 10° N 10:56:23 51° WNW 11:01:16 10° SSW visible
10 Dec 3.3 10:14:32 10° NNE 10:19:36 67° ESE 10:24:37 10° S visible
10 Dec 4.7 11:56:04 10° NW 11:57:59 12° WNW 11:59:53 10° W visible
10 Dec 6.2 23:06:48 10° WSW 23:09:04 13° W 23:11:20 10° WNW visible
11 Dec 4.9 09:38:21 10° NE 09:42:38 27° E 09:46:54 10° SSE visible
11 Dec 3.8 11:17:15 10° NNW 11:21:32 28° WNW 11:25:47 10° SW visible
12 Dec 6.1 09:04:21 10° ENE 09:05:29 11° E 09:06:37 10° ESE visible
12 Dec 2.9 10:39:49 10° N 10:44:52 67° WNW 10:49:53 10° SSW visible
13 Dec 3.8 10:03:05 10° NNE 10:08:02 50° E 10:12:55 10° S visible
13 Dec 4.4 11:43:36 10° NNW 11:46:34 16° WNW 11:49:32 10° WSW visible
13 Dec 5.9 22:54:08 10° SW 22:57:25 17° W 23:00:42 10° NW visible
14 Dec 5.3 09:27:13 10° NE 09:31:00 21° E 09:34:46 10° SE visible
14 Dec 3.5 11:05:26 10° N 11:10:03 36° WNW 11:14:38 10° SW visible
15 Dec 2.9 10:28:13 10° NNE 10:33:20 87° WNW 10:38:24 10° SSW visible
16 Dec 4.3 09:51:42 10° NNE 09:56:26 38° E 10:01:07 10° SSE visible
16 Dec 4.2 11:31:28 10° NNW 11:35:07 20° WNW 11:38:47 10° WSW visible
17 Dec 5.7 09:16:19 10° NE 09:19:21 16° E 09:22:23 10° SE visible
17 Dec 3.2 10:53:42 10° N 10:58:33 47° WNW 11:03:22 10° SW visible
18 Dec 3.1 10:16:42 10° NNE 10:21:47 72° ESE 10:26:50 10° S visible
18 Dec 4.7 11:58:43 10° NW 12:00:07 11° WNW 12:01:31 10° W visible
18 Dec 6.3 23:09:29 10° WSW 23:11:16 12° W 23:13:05 10° WNW visible
